[[{"header":{"parameterUnit":"m.s-1","parameterCategory":1,"la1":30.2991,"la2":30.254,"lo1":-89.0895,"lo2":-89.0444,"dy":0.0017,"dx":0.0017,"nx":28,"ny":28,"refTime":"2024-04-20T03:00:00:Z","depth":0,"parameterNumber":2,"parameterNumberName":"U-component_of_WINDS"},"data":[0,0,0,0,0,0,0,0,0,0,0,0,0,0,0,0,0,0,0,0,0,0,0,0,0,0,0,0,0,0,0,0,0,0,0,0,0,0,0,0,0,0,0,0,0,0,0,0,0,0,0,0,0,0,0,0,0,0,-1.0192,-1.0192,0,-1.0214,-1.0214,-1.0214,-1.0219,-1.0219,-1.0219,-1.0218,-1.0241,-1.0242,-1.0243,0,0,0,0,0,0,0,0,0,0,0,0,0,-1.0156,-1.0156,-1.0192,-1.0192,-1.0193,-1.0214,-1.0214,-1.0214,-1.0219,-1.0219,-1.0219,-1.0218,-1.0241,-1.0242,-1.0243,0,0,0,0,0,0,0,0,0,0,0,0,0,-1.0174,-1.0157,-1.0192,-1.0198,-1.0198,-1.0214,-1.0214,-1.0214,-1.0219,-1.0219,-1.0218,-1.0218,-1.0241,-1.0242,-1.0243,-1.0255,0,0,-1.0246,-1.0247,0,0,0,0,0,0,0,0,-1.0173,-1.0175,-1.0196,-1.0197,-1.0198,-1.0213,-1.021,-1.0228,-1.0219,-1.0211,-1.0218,-1.0218,-1.0232,-1.0234,-1.0239,-1.0256,-1.0257,-1.0247,-1.0247,-1.0248,-1.0248,0,0,0,0,0,0,0,-1.0172,-1.0174,-1.0201,-1.0197,-1.0198,-1.0199,-1.0201,-1.0213,-1.0223,-1.0212,-1.0212,-1.0215,-1.0233,-1.0238,-1.0239,-1.0257,-1.0246,-1.0248,-1.0248,-1.0249,-1.0285,-1.0286,0,0,0,0,0,0,-1.0169,-1.0173,-1.02,-1.0201,-1.0185,-1.02,-1.0203,-1.0209,-1.0223,-1.0225,-1.0215,-1.0215,-1.0236,-1.0238,-1.024,-1.0255,-1.0248,-1.0249,-1.0249,-1.0285,-1.0285,-1.0286,0,0,0,0,0,0,-1.0169,-1.0172,-1.0199,-1.0187,-1.0191,-1.0201,-1.0208,-1.0209,-1.0214,-1.0225,-1.0227,-1.0218,-1.0236,-1.0238,-1.0251,-1.0256,-1.0249,-1.025,-1.0285,-1.0285,-1.0286,-1.0284,0,0,0,0,0,0,-1.0167,-1.0171,-1.0176,-1.0188,-1.0192,-1.021,-1.0208,-1.021,-1.0216,-1.0216,-1.0228,-1.023,-1.0236,-1.0249,-1.0252,-1.0257,-1.0251,-1.0284,-1.0285,-1.0285,-1.0284,-1.0285,-1.0285,0,0,0,0,0,-1.0166,-1.0175,-1.0176,-1.0179,-1.0197,-1.021,-1.0212,-1.0218,-1.0216,-1.0221,-1.0228,-1.023,-1.0255,-1.0251,-1.0254,-1.0259,-1.0284,-1.0285,-1.0285,-1.0284,-1.0284,-1.0285,0,0,0,0,0,0,-1.0163,-1.0176,-1.0178,-1.019,-1.0199,-1.0211,-1.0216,-1.0219,-1.0228,-1.0228,-1.0235,-1.0238,-1.025,-1.0256,-1.0251,-1.0271,-1.0269,-1.0271,-1.0267,-1.0268,-1.0268,-1.0266,-1.0252,0,0,0,0,0,-1.0164,-1.0173,-1.0184,-1.0194,-1.0198,-1.0207,-1.0212,-1.0216,-1.0225,-1.0229,-1.0237,-1.0246,-1.0256,-1.0262,-1.0272,-1.0285,-1.0288,-1.029,-1.0291,-1.0291,-1.0292,-1.03,-1.0301,-1.0288,-1.0288,-1.0288,0,0,-1.0166,-1.0174,-1.0179,-1.0194,-1.0201,-1.021,-1.021,-1.0219,-1.0226,-1.0231,-1.0243,-1.0249,-1.026,-1.0273,-1.0279,-1.0278,-1.0297,-1.0292,-1.0292,-1.0293,-1.03,-1.0302,-1.0303,-1.0288,-1.0288,-1.0288,0,0,-1.0174,-1.0181,-1.019,-1.0197,-1.0208,-1.0213,-1.0215,-1.0227,-1.0231,-1.0243,-1.0247,-1.0255,-1.0272,-1.028,-1.0286,-1.0297,-1.0299,-1.03,-1.0303,-1.031,-1.0311,-1.0312,-1.0316,-1.0317,-1.0301,-1.0301,-1.0301,0,-1.0175,-1.0188,-1.0194,-1.0204,-1.021,-1.0214,-1.0224,-1.023,-1.0244,-1.0248,-1.0247,-1.0268,-1.0276,-1.0291,-1.0293,-1.0298,-1.0301,-1.0298,-1.031,-1.0311,-1.0312,-1.0316,-1.0317,-1.0301,-1.0301,-1.0301,-1.0301,0,-1.0189,-1.0198,-1.0204,-1.0217,-1.0224,-1.0233,-1.0241,-1.0247,-1.0251,-1.0256,-1.0269,-1.0278,-1.029,-1.0294,-1.0297,-1.0309,-1.0308,-1.0309,-1.0307,-1.0313,-1.0317,-1.0318,-1.0301,-1.0301,-1.0301,-1.0301,0,0,-1.0195,-1.0211,-1.0213,-1.0218,-1.0231,-1.0238,-1.0248,-1.0259,-1.0265,-1.0274,-1.0282,-1.0297,-1.0297,-1.0304,-1.0308,-1.0315,-1.0323,-1.0314,-1.0315,-1.0315,-1.0336,-1.0335,-1.0337,-1.0324,-1.0325,-1.0325,-1.0335,0,-1.0204,-1.0221,-1.0227,-1.0241,-1.025,-1.0254,-1.0263,-1.0271,-1.0277,-1.0286,-1.0292,-1.0302,-1.0302,-1.0307,-1.0313,-1.032,-1.0327,-1.032,-1.0332,-1.0332,-1.0329,-1.0338,-1.0338,-1.0347,-1.0336,-1.0337,-1.0337,0,-1.0217,-1.0226,-1.0241,-1.0252,-1.0256,-1.0263,-1.0274,-1.0282,-1.0292,-1.0296,-1.0304,-1.0308,-1.0318,-1.0316,-1.0331,-1.0326,-1.0332,-1.0336,-1.0336,-1.0337,-1.0335,-1.0339,-1.035,-1.0351,-1.0339,-1.0339,-1.0339,0,-1.0219,-1.0235,-1.0246,-1.0251,-1.0264,-1.0269,-1.0275,-1.0285,-1.0291,-1.0301,-1.0305,-1.0316,-1.0322,-1.033,-1.0337,-1.0335,-1.0352,-1.035,-1.0355,-1.0355,-1.0358,-1.0358,-1.0369,-1.0362,-1.0362,-1.0362,-1.0362,0,-1.0228,-1.0237,-1.0248,-1.0254,-1.0264,-1.0271,-1.0281,-1.0288,-1.0296,-1.0305,-1.0309,-1.0317,-1.0326,-1.0335,-1.0341,-1.0352,-1.0355,-1.0358,-1.0359,-1.0357,-1.0357,-1.0361,-1.036,-1.0363,-1.0362,-1.0362,-1.0362,0,-1.0233,-1.024,-1.0252,-1.0264,-1.0267,-1.0274,-1.0284,-1.0291,-1.0297,-1.0307,-1.031,-1.032,-1.0331,-1.0339,-1.0353,-1.0357,-1.0369,-1.037,-1.0365,-1.0366,-1.037,-1.037,-1.0384,-1.0386,-1.0378,-1.0379,-1.0379,0,-1.0238,-1.0245,-1.0257,-1.0263,-1.0268,-1.0278,-1.0284,-1.0291,-1.0298,-1.031,-1.0315,-1.0326,-1.0336,-1.0353,-1.0361,-1.0372,-1.0374,-1.0378,-1.0375,-1.0373,-1.0373,-1.0373,-1.0373,-1.0378,-1.0378,-1.0379,-1.0379,0,-1.0246,-1.0249,-1.0258,-1.0268,-1.0276,-1.0284,-1.0293,-1.0298,-1.0306,-1.0314,-1.0325,-1.0332,-1.0346,-1.0357,-1.0369,-1.0375,-1.0378,-1.0379,-1.0381,-1.0379,-1.0376,-1.0377,-1.0366,-1.0379,-1.0379,-1.0379,-1.0379,-1.0379,-1.0251,-1.0257,-1.0267,-1.0277,-1.0284,-1.0292,-1.0299,-1.0306,-1.0315,-1.0327,-1.0331,-1.0342,-1.0352,-1.0368,-1.0375,-1.0384,-1.0384,-1.0386,-1.0387,-1.0387,-1.0387,-1.0374,-1.0386,-1.0386,-1.0386,-1.0386,-1.0386,0,-1.0259,-1.0266,-1.0275,-1.0286,-1.0294,-1.0296,-1.0306,-1.0312,-1.0322,-1.0331,-1.034,-1.0353,-1.0363,-1.0373,-1.0384,-1.039,-1.0391,-1.0392,-1.0392,-1.0393,-1.0386,-1.0384,-1.0391,-1.0391,-1.0391,-1.0391,-1.0391,-1.0391,-1.0264,-1.0275,-1.0279,-1.0294,-1.03,-1.0311,-1.0316,-1.0324,-1.0331,-1.0345,-1.0354,-1.036,-1.0369,-1.0381,-1.0391,-1.0393,-1.0397,-1.0398,-1.0401,-1.0394,-1.0394,-1.0393,-1.039,-1.0399,-1.0399,-1.0406,-1.0406,-1.0406]},{"header":{"parameterUnit":"m.s-1","parameterCategory":1,"la1":30.2991,"la2":30.254,"lo1":-89.0895,"lo2":-89.0444,"dy":0.0017,"dx":0.0017,"nx":28,"ny":28,"refTime":"2024-04-20T03:00:00:Z","depth":0,"parameterNumber":3,"parameterNumberName":"V-component_of_WINDS"},"data":[0,0,0,0,0,0,0,0,0,0,0,0,0,0,0,0,0,0,0,0,0,0,0,0,0,0,0,0,0,0,0,0,0,0,0,0,0,0,0,0,0,0,0,0,0,0,0,0,0,0,0,0,0,0,0,0,0,0,3.1456,3.1456,0,3.1475,3.1476,3.1476,3.1414,3.1412,3.141,3.1409,3.1426,3.1428,3.143,0,0,0,0,0,0,0,0,0,0,0,0,0,3.1362,3.1364,3.1456,3.1456,3.1456,3.1475,3.1476,3.1476,3.1414,3.1412,3.141,3.1408,3.1425,3.1428,3.143,0,0,0,0,0,0,0,0,0,0,0,0,0,3.1395,3.1365,3.1456,3.1428,3.1426,3.1475,3.1476,3.1476,3.1415,3.1412,3.1409,3.1407,3.1424,3.1427,3.1431,3.1507,0,0,3.1441,3.1442,0,0,0,0,0,0,0,0,3.1393,3.1398,3.1432,3.143,3.1427,3.1439,3.1449,3.1486,3.1416,3.1419,3.1409,3.1405,3.1432,3.1435,3.1445,3.1508,3.1509,3.1441,3.1443,3.1444,3.1445,0,0,0,0,0,0,0,3.1391,3.1397,3.1463,3.1432,3.143,3.1414,3.1415,3.1456,3.1441,3.1418,3.1414,3.1417,3.1431,3.1442,3.1445,3.1509,3.1441,3.1444,3.1446,3.1447,3.1637,3.164,0,0,0,0,0,0,3.1392,3.1395,3.1463,3.1464,3.1403,3.1418,3.1419,3.1438,3.144,3.1438,3.142,3.1414,3.1437,3.1441,3.1445,3.1535,3.1444,3.1448,3.1449,3.1634,3.1637,3.1641,0,0,0,0,0,0,3.1391,3.1399,3.1462,3.1429,3.1435,3.1422,3.1444,3.144,3.1451,3.1441,3.1438,3.1434,3.1435,3.144,3.1493,3.1535,3.1449,3.1452,3.163,3.1635,3.1639,3.1717,0,0,0,0,0,0,3.1388,3.1399,3.1428,3.143,3.1437,3.151,3.1447,3.1443,3.1457,3.1451,3.1454,3.1452,3.1433,3.1488,3.1496,3.1538,3.1455,3.1626,3.1632,3.1638,3.171,3.1723,3.1735,0,0,0,0,0,3.1385,3.1448,3.143,3.1439,3.1474,3.1513,3.1517,3.1496,3.1461,3.149,3.1484,3.1451,3.1529,3.1494,3.1502,3.1546,3.1623,3.1631,3.1637,3.1705,3.1721,3.1734,0,0,0,0,0,0,3.1451,3.1448,3.1428,3.1493,3.1504,3.1502,3.1538,3.1513,3.1533,3.1526,3.1497,3.1499,3.1556,3.1556,3.1517,3.1621,3.157,3.1579,3.1619,3.1634,3.1646,3.1645,3.1457,0,0,0,0,0,3.1473,3.1506,3.1501,3.156,3.1566,3.1552,3.1568,3.155,3.156,3.1564,3.1561,3.1571,3.1597,3.1615,3.1639,3.171,3.171,3.1744,3.1756,3.1766,3.1775,3.1813,3.1828,3.1663,3.1663,3.1663,0,0,3.1519,3.1522,3.1544,3.1573,3.1579,3.1613,3.1556,3.1594,3.1618,3.1569,3.1619,3.1618,3.1626,3.1689,3.1716,3.169,3.182,3.1775,3.1783,3.1786,3.1822,3.1837,3.1851,3.1668,3.1667,3.1666,0,0,3.1621,3.1626,3.1676,3.1684,3.1694,3.1685,3.1697,3.1699,3.1697,3.1747,3.1711,3.1739,3.1785,3.1793,3.1803,3.191,3.1881,3.1918,3.1982,3.2019,3.2032,3.2044,3.2083,3.2097,3.1926,3.1926,3.1926,0,3.1677,3.1728,3.1705,3.1746,3.176,3.1718,3.1768,3.1776,3.1794,3.1804,3.1775,3.1833,3.1836,3.19,3.1926,3.1935,3.1948,3.1918,3.2033,3.2044,3.2054,3.2091,3.2105,3.1931,3.193,3.193,3.1929,0,3.1796,3.1832,3.1871,3.1891,3.1909,3.1954,3.1937,3.1958,3.194,3.1933,3.1984,3.1986,3.201,3.2024,3.2005,3.2086,3.207,3.2037,3.1986,3.2075,3.2109,3.2123,3.1937,3.1936,3.1934,3.1933,0,0,3.194,3.1947,3.1962,3.1971,3.198,3.2007,3.205,3.2075,3.2094,3.2107,3.2143,3.2184,3.2154,3.2166,3.2148,3.2181,3.2266,3.2144,3.2144,3.2168,3.2356,3.2381,3.2398,3.2247,3.2249,3.2251,3.2356,0,3.2041,3.2117,3.2098,3.2173,3.2206,3.2167,3.2205,3.2215,3.2209,3.2236,3.2229,3.2259,3.2217,3.2224,3.2255,3.2249,3.2304,3.2241,3.228,3.2282,3.228,3.2416,3.2442,3.2541,3.2369,3.2371,3.2372,0,3.217,3.219,3.2269,3.2274,3.2287,3.2322,3.2343,3.2369,3.2379,3.2373,3.2387,3.2362,3.2405,3.2353,3.2411,3.2369,3.2384,3.2384,3.2387,3.239,3.2333,3.2424,3.2571,3.2587,3.2393,3.2391,3.239,0,3.2268,3.2315,3.2369,3.2377,3.2384,3.2409,3.2413,3.242,3.2436,3.2455,3.2465,3.2488,3.2501,3.2519,3.2501,3.2465,3.2563,3.2509,3.2559,3.256,3.2582,3.2581,3.2735,3.259,3.259,3.2589,3.2589,0,3.2384,3.2434,3.2413,3.2447,3.2502,3.2479,3.2534,3.2532,3.2539,3.2571,3.2538,3.2568,3.2543,3.2571,3.2557,3.2608,3.2614,3.261,3.2606,3.2614,3.2614,3.2623,3.2617,3.2593,3.2592,3.2592,3.2591,0,3.2504,3.2492,3.2548,3.255,3.2552,3.2593,3.2594,3.2624,3.2617,3.2658,3.2666,3.2654,3.2685,3.2669,3.2701,3.2692,3.2759,3.2745,3.2756,3.2753,3.2804,3.28,3.297,3.2992,3.2832,3.2833,3.2834,0,3.2579,3.2617,3.2624,3.2644,3.265,3.2682,3.2699,3.2678,3.2697,3.2711,3.274,3.2769,3.2791,3.2843,3.2837,3.2861,3.2849,3.2907,3.2852,3.2859,3.2851,3.285,3.2854,3.2918,3.292,3.2921,3.2922,0,3.2715,3.2707,3.2734,3.2759,3.2781,3.2799,3.2814,3.2832,3.2811,3.2834,3.2867,3.2884,3.2918,3.2947,3.2969,3.2971,3.2944,3.294,3.2953,3.2962,3.2967,3.2966,3.2787,3.2936,3.2935,3.2934,3.2933,3.2932,3.2815,3.2848,3.2858,3.2889,3.2899,3.2914,3.2944,3.294,3.2967,3.2994,3.2979,3.3018,3.3027,3.3053,3.306,3.3089,3.3066,3.3084,3.3089,3.3094,3.3102,3.2962,3.3092,3.3092,3.3092,3.3091,3.3091,0,3.295,3.2955,3.2984,3.3007,3.3032,3.3005,3.302,3.3043,3.3077,3.3088,3.3111,3.3149,3.3177,3.3174,3.32,3.3224,3.3212,3.3231,3.323,3.3231,3.3121,3.3107,3.3241,3.3241,3.3241,3.3241,3.3241,3.3241,3.3023,3.3077,3.3071,3.313,3.3134,3.3172,3.3184,3.3198,3.3207,3.3251,3.3275,3.3273,3.3278,3.3304,3.3329,3.3327,3.3339,3.3363,3.3357,3.3254,3.3239,3.3225,3.3212,3.3366,3.3366,3.3465,3.3466,3.3467]}]]